Location: Bagnolo San Vito
(45.0833°N, 10.8833°E)
Time: 23:15:37
(UTC+00:00)

Cosmos 1844 - Pass Details

Date: 03 March 2021
Orbit: 822 x 868 km, 70.9° (Epoch: 16 April)

Event Time Altitude Azimuth Distance (km) Brightness Sun altitude
Rises 18:34:24 0° 335° (NNW) 3,458 7.4 -16.3°
Reaches altitude 10° 18:36:54 10° 337° (NNW) 2,514 6.6 -16.7°
Maximum altitude 18:42:42 75° 63° (ENE) 891 3.6 -17.7°
Enters shadow 18:46:58 18° 147° (SSE) 1,948 5.2 -18.5°
